Date String (YYYY-MM-DD hh:mm:ss) UTC,Instrument flags,Ambient pressure (hPa),Sample flow (lpm),Bypass flow (lpm),Sample temperature (°C),Ambient temperature (°C),ASC tube jacket temperature (°C),LED temperature (°C),Box temperature (°C),Sample RH (%),Span deviation,Mass concentration (μg/m³),Mass concentration (μg/m³),Mass concentration (μg/m³)
DateTimeUTC,F1_M11,P_M11,Q1_M11,Q2_M11,T1_M11,T2_M11,T3_M11,T4_M11,T5_M11,U1_M11,ZSPAN_M11,X0_M11,X2_M11,X1_M11
2022-11-19 11:00:00,,0830.1,5.01,0.00,21.9,20.2,00.0,31.0,23.6,06.7,0000.0,0005.48,0003.35,0003.22
2022-11-19 11:01:00,,0830.1,5.00,0.00,22.0,20.8,00.0,30.9,23.7,06.7,0000.0,0005.52,0003.33,0003.19
2022-11-19 11:02:00,,0830.1,5.00,0.00,22.1,21.9,00.0,30.9,23.9,06.6,0000.0,0005.46,0003.29,0003.15
2022-11-19 11:03:00,,0830.1,4.99,0.00,22.2,22.2,00.0,30.9,24.1,06.5,0000.0,0005.44,0003.30,0003.16
2022-11-19 11:04:00,,0830.0,5.00,0.00,22.2,21.8,00.0,31.0,24.1,06.6,0000.0,0004.75,0003.35,0003.23
2022-11-19 11:05:00,,0830.0,5.00,0.00,22.1,21.4,00.0,31.0,24.0,06.6,0000.0,0003.93,0003.38,0003.27
2022-11-19 11:06:00,,0830.0,5.00,0.00,22.1,21.0,00.0,31.0,23.9,06.7,0000.0,0003.98,0003.40,0003.28
2022-11-19 11:07:00,,0829.9,5.00,0.00,22.1,20.7,00.0,31.0,23.8,06.8,0000.0,0003.99,0003.38,0003.26
2022-11-19 11:08:00,,0829.9,5.01,0.00,22.0,20.5,00.0,31.0,23.7,06.7,0000.0,0003.85,0003.33,0003.21
2022-11-19 11:09:00,,0829.9,5.01,0.00,22.0,20.4,00.0,31.0,23.7,06.8,0000.0,0003.73,0003.27,0003.15
2022-11-19 11:10:00,,0829.9,4.99,0.00,22.0,20.3,00.0,31.0,23.7,06.8,0000.0,0003.63,0003.22,0003.10
2022-11-19 11:11:00,,0829.9,5.02,0.00,21.9,20.6,00.0,30.9,23.7,06.6,0000.0,0003.54,0003.19,0003.07
2022-11-19 11:12:00,,0829.9,4.99,0.00,22.0,21.7,00.0,30.9,23.9,06.5,0000.0,0003.49,0003.17,0003.03
2022-11-19 11:13:00,,0829.9,4.99,0.00,22.1,22.3,00.0,30.9,24.1,06.5,0000.0,0003.48,0003.14,0002.99
2022-11-19 11:14:00,,0829.9,5.00,0.00,22.2,22.0,00.0,30.9,24.1,06.3,0000.0,0003.57,0003.14,0002.98
2022-11-19 11:15:00,,0829.9,5.01,0.00,22.2,21.6,00.0,31.0,24.1,06.3,0000.0,0003.56,0003.13,0002.96
2022-11-19 11:16:00,,0829.9,4.99,0.00,22.2,21.3,00.0,31.0,24.0,06.3,0000.0,0003.51,0003.11,0002.94
2022-11-19 11:17:00,,0830.0,4.99,0.00,22.2,21.0,00.0,31.0,23.9,06.2,0000.0,0003.50,0003.11,0002.95
2022-11-19 11:18:00,,0829.9,5.00,0.00,22.1,20.8,00.0,31.0,23.9,06.3,0000.0,0003.50,0003.13,0002.99
2022-11-19 11:19:00,,0829.9,5.00,0.00,22.1,20.7,00.0,31.0,23.9,06.4,0000.0,0003.59,0003.17,0003.06
2022-11-19 11:20:00,,0830.0,4.99,0.00,22.1,20.7,00.0,31.0,23.9,06.4,0000.0,0003.81,0003.24,0003.14
2022-11-19 11:21:00,,0829.9,5.00,0.00,22.1,20.6,00.0,31.0,23.8,06.3,0000.0,0004.00,0003.31,0003.19
2022-11-19 11:22:00,,0829.9,5.01,0.00,22.1,21.3,00.0,31.0,23.9,06.3,0000.0,0004.11,0003.36,0003.23
2022-11-19 11:23:00,,0830.0,5.01,0.00,22.2,22.3,00.0,31.0,24.1,06.3,0000.0,0004.30,0003.39,0003.27
2022-11-19 11:24:00,,0830.0,4.98,0.00,22.3,22.4,00.0,31.0,24.2,06.3,0000.0,0004.48,0003.41,0003.29
2022-11-19 11:25:00,,0829.9,5.01,0.00,22.3,22.0,00.0,31.0,24.2,06.3,0000.0,0004.42,0003.41,0003.29
2022-11-19 11:26:00,,0829.9,4.98,0.00,22.3,21.6,00.0,31.1,24.1,06.3,0000.0,0004.57,0003.44,0003.31
2022-11-19 11:27:00,,0830.0,5.00,0.00,22.2,21.3,00.0,31.1,24.1,06.2,0000.0,0004.75,0003.49,0003.33
2022-11-19 11:28:00,,0830.1,5.01,0.00,22.2,20.9,00.0,31.1,23.9,06.4,0000.0,0004.76,0003.49,0003.34
2022-11-19 11:29:00,,0830.1,4.99,0.00,22.1,20.5,00.0,31.1,23.8,06.8,0000.0,0004.63,0003.43,0003.29
2022-11-19 11:30:00,,0830.0,5.00,0.00,22.1,20.1,00.0,31.1,23.6,07.0,0000.0,0005.59,0003.35,0003.22
2022-11-19 11:31:00,,0830.0,5.00,0.00,22.0,19.8,00.0,31.0,23.5,07.1,0000.0,0005.87,0003.26,0003.12
2022-11-19 11:32:00,,0830.1,5.00,0.00,21.9,19.8,00.0,31.0,23.5,07.1,0000.0,0005.69,0003.17,0002.98
2022-11-19 11:33:00,,0830.1,5.01,0.00,21.9,20.9,00.0,30.9,23.7,07.0,0000.0,0006.35,0003.04,0002.82
2022-11-19 11:34:00,,0830.1,4.99,0.00,22.1,22.0,00.0,30.9,23.9,07.0,0000.0,0006.46,0002.86,0002.66
2022-11-19 11:35:00,,0830.1,5.00,0.00,22.1,21.8,00.0,31.0,24.0,07.0,0000.0,0006.13,0002.73,0002.53
2022-11-19 11:36:00,,0830.1,5.01,0.00,22.1,21.4,00.0,31.0,24.0,07.1,0000.0,0006.03,0002.61,0002.39
2022-11-19 11:37:00,,0830.2,4.98,0.00,22.1,21.1,00.0,31.0,23.9,07.1,0000.0,0005.85,0002.46,0002.25
2022-11-19 11:38:00,,0830.2,5.01,0.00,22.0,20.8,00.0,31.0,23.8,07.1,0000.0,0005.62,0002.29,0002.10
2022-11-19 11:39:00,,0830.2,5.00,0.00,22.0,20.6,00.0,31.0,23.7,07.2,0000.0,0005.64,0002.22,0001.98
2022-11-19 11:40:00,,0830.2,4.98,0.00,22.0,20.4,00.0,31.0,23.7,07.3,0000.0,0005.64,0002.18,0001.92
2022-11-19 11:41:00,,0830.2,5.00,0.00,21.9,20.2,00.0,31.0,23.6,07.3,0000.0,0004.86,0002.17,0001.88
2022-11-19 11:42:00,,0830.3,5.01,0.00,21.9,20.2,00.0,31.0,23.6,07.3,0000.0,0003.94,0002.14,0001.86
2022-11-19 11:43:00,,0830.2,5.00,0.00,21.9,21.1,00.0,30.9,23.7,07.3,0000.0,0003.92,0002.12,0001.82
2022-11-19 11:44:00,,0830.2,4.99,0.00,22.0,22.1,00.0,30.9,24.0,07.2,0000.0,0003.26,0002.08,0001.79
2022-11-19 11:45:00,,0830.2,5.00,0.00,22.1,22.0,00.0,30.9,24.0,07.1,0000.0,0002.57,0002.05,0001.77
2022-11-19 11:46:00,,0830.2,4.99,0.00,22.1,21.6,00.0,31.0,24.0,07.2,0000.0,0002.51,0002.01,0001.73
2022-11-19 11:47:00,,0830.3,5.00,0.00,22.1,21.2,00.0,31.0,23.9,07.1,0000.0,0002.48,0002.00,0001.73
2022-11-19 11:48:00,,0830.2,5.00,0.00,22.1,20.9,00.0,31.0,23.8,07.1,0000.0,0002.47,0002.00,0001.72
2022-11-19 11:49:00,,0830.3,5.01,0.00,22.0,20.7,00.0,31.0,23.8,07.0,0000.0,0002.43,0001.99,0001.73
2022-11-19 11:50:00,,0830.2,5.01,0.00,22.0,20.5,00.0,31.0,23.7,07.0,0000.0,0002.27,0001.94,0001.74
2022-11-19 11:51:00,,0830.3,5.00,0.00,22.0,20.3,00.0,31.0,23.6,06.9,0000.0,0002.28,0001.98,0001.78
2022-11-19 11:52:00,,0830.2,4.99,0.00,21.9,20.2,00.0,30.9,23.6,07.0,0000.0,0002.29,0001.99,0001.81
2022-11-19 11:53:00,,0830.2,5.00,0.00,21.9,21.0,00.0,30.9,23.7,06.9,0000.0,0002.34,0002.03,0001.85
2022-11-19 11:54:00,,0830.3,4.99,0.00,22.1,22.0,00.0,30.9,24.0,06.8,0000.0,0002.36,0002.05,0001.89
2022-11-19 11:55:00,,0830.3,5.00,0.00,22.1,22.1,00.0,30.9,24.1,06.8,0000.0,0002.35,0002.08,0001.93
2022-11-19 11:56:00,,0830.4,5.01,0.00,22.1,21.7,00.0,31.0,24.0,06.8,0000.0,0002.45,0002.12,0001.96
2022-11-19 11:57:00,,0830.4,4.98,0.00,22.1,21.3,00.0,31.0,23.9,06.8,0000.0,0002.58,0002.20,0002.01
2022-11-19 11:58:00,,0830.4,5.00,0.00,22.1,21.0,00.0,31.0,23.9,06.8,0000.0,0002.66,0002.23,0002.03
2022-11-19 11:59:00,,0830.5,5.01,0.00,22.1,20.8,00.0,31.0,23.8,06.8,0000.0,0002.90,0002.26,0002.06
